Notices

What's New in latest Release from April 7th, 2021:

- Updated Glossary, including Speed of Maximum Gust, and Total Hourly Precipitation

- Updated national and regional climate services offices contacts and prices information

- Addition of station inventory lists for 1981-2010, 1971-2000, and 1961-1990 Normals.

If you haven't already, please take our survey and provide feedback about our website: https://eccc.sondage-survey.ca/f/LanguageSelection.aspx?s=442ca660-fcf1-47c0-95a9-59707d6fd709

Hourly Data Report for November 25, 2017

CARBERRY CS
MANITOBA

49°54'20.900" N
99°21'26.800" W
383.50 m
5010547
71170
WZE

Download Data

Hourly Data (November 2017)
Hourly Data Report for November 25, 2017
TIME
LST
Temp Definition
°C
Dew Point Definition
°C
Rel Hum Definition
%
Precip. Amount Definition
mm

Wind Dir Definition
10's deg

Wind Spd Definition
km/h
Visibility Definition
km
Stn Press Definition
kPa
Hmdx Definition


Wind Chill Definition


Weather Definition


00:00 -8.9 -11.8 79 0.0 3 6   96.69   -12 LegendNANA
01:00 -9.9 -12.0 85 0.0 34 1   96.78   -10 LegendNANA
02:00 -10.5 -12.4 86 0.0 30 3   96.89   -12 LegendNANA
03:00 -10.7 -12.4 87 0.0 0 1   96.95   -11 LegendNANA
04:00 -10.8 -13.0 84 0.0 4 5   96.92   -14 LegendNANA
05:00 -11.4 -13.4 85 0.0 14 2   96.99   -13 LegendNANA
06:00 -11.4 -12.8 89 0.0 16 5   97.03   -15 LegendNANA
07:00 -11.6 -13.4 87 0.0 23 6   97.15   -15 LegendNANA
08:00 -11.3 -13.3 85 0.0 25 7   97.20   -16 LegendNANA
09:00 -10.2 -12.5 83 0.2 19 8   97.18   -15 LegendNANA
10:00 -8.1 -10.8 81 0.0 21 8   97.18   -12 LegendNANA
11:00 -5.6 -8.7 79 0.0 25 12   97.16   -11 LegendNANA
12:00 -3.8 -7.2 77 0.0 21 4   97.07   -5 LegendNANA
13:00 -2.6 -6.0 77 0.0 18 12   97.06   -7 LegendNANA
14:00 -2.1 -5.3 78 0.0 15 10   96.96   -6 LegendNANA
15:00 -1.5 -4.5 81 0.0 15 11   96.87   -5 LegendNANA
16:00 -1.1 -3.7 82 0.0 13 8   96.82   -4 LegendNANA
17:00 -2.2 -3.9 88 0.0 12 3   96.80   -3 LegendNANA
18:00 -2.6 -4.0 90 0.0 17 10   96.75   -6 LegendNANA
19:00 -3.0 -4.2 92 0.0 18 10   96.72   -7 LegendNANA
20:00 -2.2 -3.3 92 0.0 18 14   96.62   -7 LegendNANA
21:00 -1.5 -2.4 93 0.0 21 11   96.61   -5 LegendNANA
22:00 -0.1 -2.4 85 0.0 23 13   96.54   -4 LegendNANA
23:00 0.0 -2.5 83 0.0 26 25   96.57   -6 LegendNANA

Notes on Data Quality.

Legend

  • E = Estimated
  • M = Missing
  • NA = Not Available*
  • [empty] = Indicates an unobserved value
Date modified: